Regional Weather Roundup
Issued by NWS

Home | Current Version | Previous Version | Text Only | Print | Product List | Glossary Off
Versions: 1 2 3 4 5 6 7 8 9 10 11 12 13 14 15 16 17 18 19 20 21 22 23 24 25 26 27 28 29 30 31 32 33 34 35 36 37 38 39 40 41 42 43 44 45 46 47 48 49 50

000
ASUS45 KCYS 281610
RWRWY

WYOMING REGIONAL WEATHER ROUNDUP
NATIONAL WEATHER SERVICE CHEYENNE WY
1000 AM MDT THU JUL 28 2016

NOTE:  "FAIR" INDICATES FEW OR NO CLOUDS BELOW 12,000 FEET
WITH NO SIGNIFICANT WEATHER AND/OR OBSTRUCTIONS TO VISIBILITY.

WYZ001-281700-
YELLOWSTONE NATIONAL PARK

CITY           SKY/WX    TMP DP  RH WIND       PRES   REMARKS
LK YELLOWSTONE   N/A     58  48  69 SE5       30.41S
W YELLOWSTONE  NOT AVBL

$$
WYZ002>013-054>058-071-098>099-281700-
NORTHERN WYOMING

CITY           SKY/WX    TMP DP  RH WIND       PRES   REMARKS
JACKSON        SUNNY     64  41  42 CALM      30.31F
CODY           FAIR      70  50  49 CALM      30.26F
GREYBULL       FAIR      71  53  52 VRB6      30.19S
WORLAND        FAIR      69  53  56 VRB3      30.21F
SHERIDAN       PTSUNNY   67  57  70 NW7       30.22S
BUFFALO        PTSUNNY   65  54  67 N6        30.28R
GILLETTE       PTSUNNY   64  60  87 W9        30.21R
HULETT         CLOUDY    63  55  77 SW7       30.21R
NEWCASTLE      RAIN      55  54  94 E13       30.23F

$$
WYZ014>020-022>026-101>103-281700-
CENTRAL WYOMING

CITY           SKY/WX    TMP DP  RH WIND       PRES   REMARKS
BIG PINEY      FAIR      66  37  34 SW5       30.34S
PINEDALE       FAIR      70  32  24 SE3       30.34F
DUBOIS         FAIR      64  45  48 CALM      30.36F
LANDER         FAIR      71  50  47 VRB3      30.26F
RIVERTON       FAIR      68  50  52 SE5       30.27F
CASPER         FAIR      68  49  50 E13       30.27R
DOUGLAS          N/A    N/A N/A N/A MISG      30.27F

$$
WYZ021-027>030-104>119-281700-
SOUTHERN WYOMING

CITY           SKY/WX    TMP DP  RH WIND       PRES   REMARKS
EVANSTON       FAIR      77  30  17 CALM      30.34S
KEMMERER         N/A     75  28  17 E7        30.35S
FORT BRIDGER   FAIR      73  31  20 S3        30.36S
ROCK SPRINGS   FAIR      70  48  45 E13       30.32S
DIXON          FAIR      70  31  23 CALM      30.32S
RAWLINS        FAIR      67  52  58 E7        30.33R
SARATOGA       FAIR      66  46  48 NW3       30.34F
LARAMIE        FAIR      65  52  62 N10       30.32R
CHEYENNE       CLOUDY    60  58  92 CALM      30.28R FOG
TORRINGTON     LGT RAIN  61  59  93 S8        30.22R FOG
PINE BLUFFS    PTSUNNY   66  57  72 E5        30.22R

$$



USA.gov is the U.S. government's official web portal to all federal, state and local government web resources and services.